Location: ????????
(60.4333°N, 46.4710°E)
Time: 04:00:46
(UTC+00:00)

Ariane Rocket - Pass Details

Date: 25 November 2020
Orbit: 760 x 769 km, 98.7° (Epoch: 19 January)

Event Time Altitude Azimuth Distance (km) Brightness Sun altitude
Exits shadow 14:33:12 24° 45° (NE) 1,555 4.1 -17.1°
Drops below altitude 10° 14:37:08 10° 355° (N) 2,315 5.4 -17.6°
Sets 14:39:48 0° 342° (NNW) 3,243 6.3 -17.9°
